QPF
0.00 0.01 0.02 0.03 0.02 0.01 0.00 0.00 0.00 0.01 0.01 0.01 0.01 0.01 0.01 0.01 0.01 0.01 0.01 0.01 0.01 0.01 0.02 0.02 0.02 0.01 0.02 0.02 0.02 0.02 0.02 0.01 0.01 0.01 0.01 0.02 0.01 0.01 0.02 0.01 0.01 0.01 0.02
0.00 0.01 0.02 0.02 0.01 0.01 0.01 0.00 0.01 0.01 0.01 0.01 0.01 0.01 0.01 0.01 0.02 0.01 0.01 0.01 0.01 0.01 0.01 0.02 0.01 0.01 0.02 0.01 0.01 0.01 0.01 0.01 0.00 0.00 0.00 0.01 0.01 0.01 0.01 0.01 0.01 0.02 0.02
0.00 0.01 0.01 0.02 0.01 0.01 0.01 0.01 0.01 0.01 0.01 0.01 0.02 0.02 0.01 0.01 0.01 0.01 0.01 0.01 0.01 0.01 0.01 0.01 0.01 0.01 0.01 0.01 0.01 0.01 0.01 0.00 0.00 0.00 0.00 0.00 0.01 0.01 0.01 0.01 0.01 0.02 0.02
0.00 0.01 0.01 0.01 0.02 0.01 0.01 0.01 0.01 0.01 0.02 0.02 0.02 0.03 0.02 0.02 0.02 0.01 0.01 0.01 0.01 0.01 0.01 0.01 0.01 0.01 0.01 0.01 0.01 0.01 0.00 0.00 0.00 0.00 0.00 0.00 0.00 0.01 0.01 0.01 0.01 0.01 0.01
0.01 0.01 0.01 0.02 0.02 0.02 0.02 0.01 0.01 0.02 0.02 0.03 0.03 0.03 0.03 0.03 0.02 0.02 0.01 0.01 0.00 0.00 0.00 0.00 0.01 0.01 0.01 0.01 0.00 0.00 0.00 0.00 0.00 0.00 0.00 0.00 0.00 0.01 0.00 0.00 0.00 0.00 0.01
0.01 0.01 0.01 0.02 0.02 0.03 0.02 0.02 0.01 0.01 0.02 0.03 0.03 0.02 0.03 0.03 0.03 0.02 0.01 0.01 0.00 0.00 0.00 0.01 0.01 0.01 0.01 0.01 0.01 0.00 0.00 0.00 0.00 0.00 0.00 0.00 0.00 0.01 0.01 0.00 0.00 0.00 0.01
0.02 0.02 0.02 0.02 0.03 0.03 0.03 0.02 0.01 0.01 0.02 0.02 0.03 0.03 0.02 0.03 0.03 0.03 0.02 0.01 0.01 0.01 0.01 0.01 0.01 0.01 0.01 0.01 0.01 0.00 0.00 0.00 0.00 0.00 0.00 0.00 0.00 0.01 0.01 0.01 0.01 0.01 0.01
0.03 0.02 0.03 0.04 0.04 0.04 0.03 0.03 0.02 0.01 0.02 0.02 0.03 0.03 0.03 0.03 0.03 0.04 0.03 0.02 0.03 0.02 0.02 0.02 0.01 0.01 0.01 0.01 0.01 0.00 0.00 0.00 0.00 0.00 0.00 0.00 0.01 0.01 0.01 0.01 0.01 0.01 0.02
0.04 0.04 0.04 0.04 0.04 0.05 0.05 0.04 0.03 0.02 0.01 0.02 0.02 0.03 0.04 0.04 0.03 0.03 0.04 0.06 0.05 0.03 0.02 0.02 0.02 0.01 0.01 0.02 0.02 0.01 0.00 0.00 0.00 0.00 0.00 0.00 0.01 0.01 0.01 0.01 0.02 0.02 0.02
0.04 0.04 0.04 0.04 0.05 0.05 0.06 0.06 0.06 0.04 0.03 0.02 0.02 0.02 0.03 0.04 0.05 0.04 0.04 0.05 0.07 0.06 0.04 0.03 0.03 0.03 0.02 0.02 0.02 0.02 0.00 0.00 0.00 0.00 0.00 0.00 0.01 0.01 0.01 0.01 0.01 0.02 0.02
0.04 0.05 0.06 0.05 0.05 0.05 0.05 0.06 0.06 0.06 0.05 0.03 0.02 0.02 0.02 0.03 0.05 0.06 0.05 0.05 0.06 0.06 0.06 0.04 0.02 0.03 0.03 0.02 0.02 0.01 0.00 0.00 0.00 0.00 0.00 0.00 0.01 0.01 0.02 0.03 0.02 0.01 0.01
0.03 0.04 0.05 0.05 0.04 0.05 0.05 0.04 0.04 0.04 0.05 0.04 0.02 0.02 0.02 0.02 0.04 0.05 0.07 0.06 0.05 0.06 0.06 0.04 0.03 0.03 0.03 0.02 0.02 0.01 0.01 0.00 0.01 0.00 0.00 0.00 0.02 0.02 0.03 0.05 0.03 0.02 0.01
0.02 0.02 0.04 0.05 0.05 0.04 0.03 0.02 0.02 0.02 0.03 0.04 0.04 0.03 0.02 0.03 0.03 0.04 0.06 0.08 0.05 0.05 0.07 0.07 0.04 0.02 0.02 0.02 0.01 0.01 0.01 0.01 0.00 0.00 0.01 0.00 0.02 0.03 0.03 0.03 0.02 0.01 0.01
0.02 0.03 0.04 0.05 0.05 0.04 0.04 0.03 0.02 0.02 0.01 0.02 0.04 0.04 0.03 0.03 0.03 0.03 0.05 0.06 0.05 0.03 0.05 0.07 0.06 0.03 0.02 0.01 0.01 0.01 0.01 0.00 0.00 0.00 0.00 0.00 0.00 0.01 0.01 0.01 0.01 0.00 0.00
0.02 0.03 0.04 0.05 0.05 0.04 0.04 0.04 0.03 0.02 0.01 0.01 0.02 0.04 0.04 0.02 0.02 0.04 0.05 0.05 0.04 0.03 0.03 0.05 0.05 0.04 0.02 0.01 0.01 0.01 0.01 0.01 0.00 0.00 0.00 0.00 0.00 0.01 0.01 0.01 0.00 0.00 0.00
0.03 0.03 0.04 0.05 0.05 0.04 0.03 0.03 0.03 0.03 0.02 0.01 0.02 0.04 0.04 0.03 0.03 0.04 0.05 0.05 0.05 0.03 0.03 0.04 0.05 0.03 0.02 0.01 0.01 0.01 0.01 0.01 0.01 0.00 0.00 0.00 0.00 0.00 0.02 0.02 0.01 0.01 0.01
0.03 0.03 0.03 0.04 0.05 0.05 0.04 0.03 0.02 0.02 0.02 0.02 0.02 0.03 0.05 0.03 0.04 0.05 0.06 0.07 0.05 0.04 0.03 0.04 0.05 0.05 0.03 0.02 0.01 0.01 0.00 0.00 0.00 0.01 0.00 0.00 0.00 0.00 0.01 0.02 0.02 0.02 0.02
0.02 0.03 0.03 0.03 0.03 0.05 0.05 0.03 0.02 0.02 0.01 0.02 0.02 0.02 0.04 0.06 0.04 0.04 0.05 0.07 0.07 0.05 0.03 0.03 0.04 0.05 0.05 0.03 0.01 0.01 0.00 0.00 0.00 0.00 0.01 0.00 0.00 0.00 0.01 0.01 0.01 0.01 0.02
0.02 0.03 0.03 0.03 0.03 0.04 0.06 0.04 0.03 0.03 0.02 0.02 0.02 0.02 0.02 0.07 0.07 0.04 0.04 0.06 0.08 0.07 0.04 0.03 0.03 0.04 0.04 0.04 0.03 0.01 0.01 0.00 0.00 0.00 0.00 0.00 0.00 0.00 0.01 0.01 0.01 0.01 0.01
0.03 0.04 0.04 0.03 0.02 0.04 0.07 0.05 0.04 0.04 0.03 0.03 0.03 0.02 0.02 0.05 0.12 0.10 0.05 0.05 0.06 0.08 0.07 0.04 0.03 0.03 0.03 0.03 0.03 0.02 0.01 0.01 0.00 0.00 0.00 0.00 0.00 0.00 0.00 0.01 0.01 0.01 0.02
0.03 0.04 0.04 0.03 0.02 0.03 0.06 0.06 0.04 0.03 0.02 0.02 0.02 0.02 0.02 0.02 0.07 0.16 0.11 0.06 0.05 0.06 0.08 0.07 0.06 0.05 0.03 0.02 0.02 0.02 0.02 0.01 0.01 0.00 0.00 0.00 0.00 0.00 0.00 0.00 0.00 0.01 0.01
0.04 0.03 0.04 0.03 0.02 0.03 0.04 0.05 0.05 0.04 0.03 0.03 0.02 0.02 0.02 0.02 0.03 0.10 0.19 0.12 0.06 0.05 0.05 0.06 0.06 0.06 0.05 0.03 0.02 0.02 0.02 0.02 0.01 0.00 0.00 0.00 0.00 0.00 0.00 0.00 0.00 0.00 0.01
0.04 0.03 0.03 0.03 0.03 0.02 0.02 0.03 0.04 0.05 0.06 0.04 0.03 0.02 0.02 0.02 0.02 0.04 0.14 0.18 0.12 0.06 0.04 0.04 0.04 0.04 0.04 0.04 0.03 0.02 0.01 0.01 0.01 0.01 0.00 0.00 0.00 0.00 0.00 0.00 0.00 0.00 0.00
0.04 0.03 0.03 0.03 0.03 0.03 0.03 0.02 0.02 0.04 0.06 0.06 0.05 0.03 0.03 0.02 0.03 0.04 0.07 0.15 0.16 0.10 0.06 0.03 0.03 0.04 0.04 0.04 0.03 0.02 0.01 0.01 0.01 0.01 0.01 0.00 0.00 0.00 0.00 0.00 0.00 0.00 0.00
0.03 0.03 0.02 0.03 0.02 0.02 0.02 0.02 0.02 0.02 0.04 0.06 0.07 0.06 0.04 0.04 0.03 0.04 0.06 0.10 0.13 0.12 0.09 0.05 0.03 0.02 0.03 0.03 0.03 0.02 0.01 0.01 0.00 0.00 0.00 0.00 0.00 0.00 0.00 0.00 0.00 0.00 0.00
0.03 0.02 0.02 0.03 0.02 0.02 0.02 0.02 0.02 0.02 0.03 0.04 0.06 0.06 0.05 0.05 0.04 0.04 0.05 0.08 0.11 0.11 0.10 0.08 0.05 0.02 0.01 0.01 0.02 0.02 0.01 0.01 0.01 0.00 0.00 0.00 0.00 0.00 0.00 0.00 0.00 0.00 0.00
MSLP
1023.07 1022.85 1022.62 1022.40 1022.22 1022.07 1021.96 1021.85 1021.74 1021.58 1021.38 1021.13 1020.86 1020.58 1020.32 1020.10 1019.93 1019.82 1019.74 1019.67 1019.58 1019.47 1019.32 1019.15 1018.98 1018.84 1018.76 1018.72 1018.74 1018.78 1018.81 1018.80 1018.72 1018.55 1018.32 1018.04 1017.73 1017.42 1017.14 1016.89 1016.67 1016.49 1016.32
1023.06 1022.84 1022.60 1022.38 1022.20 1022.07 1021.97 1021.89 1021.79 1021.67 1021.49 1021.28 1021.03 1020.79 1020.57 1020.39 1020.26 1020.18 1020.12 1020.07 1019.99 1019.88 1019.72 1019.54 1019.35 1019.18 1019.06 1019.00 1018.99 1019.01 1019.03 1019.02 1018.96 1018.82 1018.61 1018.34 1018.03 1017.72 1017.42 1017.14 1016.90 1016.68 1016.50
1023.03 1022.79 1022.55 1022.32 1022.16 1022.04 1021.97 1021.92 1021.87 1021.78 1021.66 1021.49 1021.29 1021.09 1020.91 1020.76 1020.65 1020.59 1020.53 1020.48 1020.39 1020.26 1020.09 1019.88 1019.67 1019.47 1019.32 1019.23 1019.19 1019.19 1019.21 1019.21 1019.17 1019.06 1018.88 1018.63 1018.34 1018.03 1017.72 1017.42 1017.16 1016.94 1016.75
1023.02 1022.77 1022.52 1022.30 1022.14 1022.05 1022.01 1022.00 1021.98 1021.94 1021.86 1021.74 1021.59 1021.43 1021.27 1021.15 1021.05 1020.98 1020.91 1020.84 1020.73 1020.58 1020.38 1020.16 1019.92 1019.71 1019.54 1019.42 1019.37 1019.37 1019.39 1019.40 1019.38 1019.30 1019.15 1018.93 1018.65 1018.35 1018.03 1017.73 1017.46 1017.23 1017.03
1023.07 1022.82 1022.57 1022.36 1022.22 1022.15 1022.13 1022.14 1022.16 1022.15 1022.10 1022.01 1021.89 1021.76 1021.62 1021.50 1021.40 1021.31 1021.22 1021.11 1020.98 1020.81 1020.60 1020.37 1020.13 1019.91 1019.74 1019.63 1019.58 1019.58 1019.60 1019.63 1019.62 1019.56 1019.43 1019.23 1018.97 1018.67 1018.35 1018.05 1017.77 1017.53 1017.33
1023.21 1022.97 1022.73 1022.54 1022.41 1022.35 1022.34 1022.36 1022.38 1022.38 1022.35 1022.28 1022.17 1022.04 1021.91 1021.79 1021.67 1021.56 1021.45 1021.32 1021.16 1020.98 1020.77 1020.55 1020.33 1020.13 1019.98 1019.89 1019.85 1019.85 1019.88 1019.91 1019.91 1019.85 1019.72 1019.52 1019.26 1018.96 1018.64 1018.33 1018.04 1017.80 1017.60
1023.43 1023.22 1023.01 1022.84 1022.72 1022.66 1022.64 1022.65 1022.65 1022.64 1022.60 1022.52 1022.42 1022.29 1022.16 1022.03 1021.90 1021.77 1021.63 1021.49 1021.32 1021.14 1020.94 1020.74 1020.56 1020.40 1020.28 1020.21 1020.19 1020.20 1020.22 1020.24 1020.23 1020.15 1020.01 1019.79 1019.52 1019.20 1018.87 1018.54 1018.25 1018.01 1017.81
1023.69 1023.52 1023.35 1023.20 1023.10 1023.03 1023.00 1022.98 1022.96 1022.92 1022.85 1022.76 1022.65 1022.53 1022.40 1022.26 1022.12 1021.98 1021.83 1021.68 1021.51 1021.34 1021.17 1021.00 1020.85 1020.73 1020.65 1020.61 1020.59 1020.60 1020.60 1020.59 1020.54 1020.43 1020.26 1020.01 1019.71 1019.37 1019.01 1018.68 1018.38 1018.13 1017.93
1023.94 1023.82 1023.69 1023.58 1023.50 1023.43 1023.38 1023.33 1023.28 1023.20 1023.12 1023.02 1022.91 1022.79 1022.67 1022.54 1022.40 1022.26 1022.11 1021.95 1021.79 1021.63 1021.48 1021.34 1021.23 1021.15 1021.09 1021.05 1021.03 1021.01 1020.98 1020.93 1020.83 1020.67 1020.44 1020.16 1019.82 1019.46 1019.09 1018.73 1018.42 1018.17 1017.97
1024.11 1024.05 1023.98 1023.91 1023.85 1023.79 1023.73 1023.67 1023.59 1023.51 1023.41 1023.31 1023.21 1023.11 1023.00 1022.89 1022.76 1022.63 1022.48 1022.32 1022.17 1022.02 1021.88 1021.77 1021.67 1021.60 1021.55 1021.50 1021.46 1021.40 1021.32 1021.21 1021.05 1020.84 1020.57 1020.25 1019.89 1019.51 1019.12 1018.76 1018.44 1018.17 1017.97
1024.18 1024.18 1024.16 1024.14 1024.11 1024.08 1024.03 1023.97 1023.89 1023.80 1023.72 1023.63 1023.55 1023.48 1023.40 1023.32 1023.21 1023.08 1022.94 1022.79 1022.63 1022.48 1022.35 1022.24 1022.14 1022.07 1022.00 1021.92 1021.84 1021.73 1021.59 1021.42 1021.21 1020.95 1020.65 1020.31 1019.94 1019.55 1019.16 1018.80 1018.47 1018.20 1017.98
1024.13 1024.18 1024.22 1024.26 1024.28 1024.28 1024.25 1024.21 1024.15 1024.08 1024.02 1023.97 1023.92 1023.89 1023.84 1023.78 1023.70 1023.58 1023.44 1023.28 1023.12 1022.96 1022.82 1022.70 1022.59 1022.49 1022.39 1022.27 1022.14 1021.98 1021.78 1021.56 1021.31 1021.03 1020.72 1020.39 1020.03 1019.66 1019.28 1018.91 1018.58 1018.28 1018.04
1023.97 1024.08 1024.18 1024.27 1024.33 1024.38 1024.39 1024.38 1024.35 1024.32 1024.29 1024.28 1024.27 1024.27 1024.26 1024.22 1024.16 1024.05 1023.91 1023.75 1023.58 1023.41 1023.25 1023.11 1022.97 1022.84 1022.70 1022.54 1022.35 1022.14 1021.91 1021.66 1021.40 1021.11 1020.82 1020.52 1020.19 1019.85 1019.50 1019.15 1018.80 1018.48 1018.20
1023.76 1023.91 1024.06 1024.20 1024.31 1024.40 1024.46 1024.49 1024.50 1024.50 1024.51 1024.52 1024.55 1024.58 1024.59 1024.57 1024.52 1024.42 1024.28 1024.12 1023.94 1023.76 1023.58 1023.41 1023.25 1023.09 1022.91 1022.71 1022.49 1022.25 1022.00 1021.74 1021.48 1021.23 1020.97 1020.72 1020.45 1020.16 1019.85 1019.51 1019.16 1018.80 1018.46
1023.51 1023.71 1023.91 1024.09 1024.24 1024.37 1024.46 1024.52 1024.57 1024.60 1024.64 1024.68 1024.72 1024.76 1024.79 1024.78 1024.74 1024.65 1024.52 1024.35 1024.17 1023.99 1023.80 1023.62 1023.44 1023.25 1023.05 1022.83 1022.59 1022.33 1022.08 1021.83 1021.59 1021.38 1021.18 1020.99 1020.78 1020.55 1020.28 1019.96 1019.60 1019.21 1018.81
1023.26 1023.50 1023.74 1023.95 1024.14 1024.29 1024.41 1024.50 1024.57 1024.62 1024.67 1024.72 1024.77 1024.82 1024.84 1024.84 1024.80 1024.72 1024.60 1024.45 1024.28 1024.10 1023.91 1023.73 1023.54 1023.35 1023.13 1022.91 1022.66 1022.41 1022.17 1021.94 1021.74 1021.58 1021.43 1021.30 1021.15 1020.97 1020.74 1020.45 1020.09 1019.67 1019.22
1023.00 1023.28 1023.55 1023.79 1024.00 1024.18 1024.32 1024.43 1024.51 1024.57 1024.62 1024.67 1024.72 1024.76 1024.78 1024.78 1024.75 1024.68 1024.58 1024.45 1024.30 1024.14 1023.97 1023.79 1023.61 1023.42 1023.21 1022.99 1022.75 1022.52 1022.30 1022.10 1021.93 1021.80 1021.69 1021.60 1021.50 1021.36 1021.17 1020.89 1020.54 1020.11 1019.62
1022.69 1023.02 1023.32 1023.59 1023.82 1024.02 1024.18 1024.30 1024.40 1024.47 1024.52 1024.56 1024.60 1024.63 1024.65 1024.65 1024.62 1024.57 1024.50 1024.40 1024.28 1024.15 1024.00 1023.84 1023.68 1023.50 1023.31 1023.10 1022.89 1022.67 1022.47 1022.29 1022.14 1022.02 1021.93 1021.85 1021.77 1021.65 1021.48 1021.23 1020.89 1020.47 1019.98
1022.31 1022.67 1023.00 1023.30 1023.56 1023.79 1023.98 1024.13 1024.24 1024.32 1024.38 1024.42 1024.46 1024.48 1024.49 1024.50 1024.49 1024.47 1024.42 1024.36 1024.27 1024.17 1024.05 1023.92 1023.77 1023.61 1023.44 1023.26 1023.07 1022.87 1022.68 1022.51 1022.36 1022.23 1022.13 1022.03 1021.93 1021.81 1021.65 1021.42 1021.11 1020.71 1020.24
1021.82 1022.22 1022.58 1022.91 1023.21 1023.48 1023.71 1023.90 1024.05 1024.16 1024.23 1024.28 1024.31 1024.34 1024.35 1024.37 1024.38 1024.38 1024.37 1024.34 1024.29 1024.22 1024.13 1024.02 1023.90 1023.76 1023.61 1023.45 1023.29 1023.11 1022.94 1022.76 1022.59 1022.43 1022.28 1022.14 1021.99 1021.84 1021.67 1021.45 1021.17 1020.82 1020.40
1021.23 1021.65 1022.04 1022.41 1022.76 1023.08 1023.37 1023.61 1023.81 1023.96 1024.07 1024.14 1024.18 1024.21 1024.24 1024.27 1024.30 1024.33 1024.35 1024.35 1024.33 1024.29 1024.22 1024.13 1024.03 1023.92 1023.80 1023.67 1023.53 1023.38 1023.22 1023.03 1022.83 1022.62 1022.40 1022.19 1021.98 1021.78 1021.57 1021.35 1021.10 1020.81 1020.46
1020.56 1021.00 1021.42 1021.82 1022.22 1022.60 1022.96 1023.28 1023.54 1023.75 1023.90 1023.99 1024.05 1024.10 1024.13 1024.18 1024.23 1024.28 1024.33 1024.36 1024.36 1024.34 1024.29 1024.23 1024.15 1024.06 1023.97 1023.88 1023.78 1023.66 1023.50 1023.31 1023.08 1022.82 1022.53 1022.23 1021.94 1021.67 1021.41 1021.18 1020.95 1020.70 1020.42
1019.89 1020.32 1020.75 1021.18 1021.62 1022.07 1022.50 1022.89 1023.23 1023.50 1023.69 1023.82 1023.90 1023.95 1024.00 1024.05 1024.12 1024.19 1024.26 1024.31 1024.34 1024.34 1024.31 1024.26 1024.20 1024.15 1024.10 1024.05 1023.99 1023.91 1023.78 1023.60 1023.35 1023.04 1022.68 1022.30 1021.92 1021.56 1021.25 1020.98 1020.75 1020.53 1020.30
1019.29 1019.69 1020.10 1020.55 1021.02 1021.52 1022.02 1022.48 1022.88 1023.20 1023.44 1023.59 1023.69 1023.75 1023.80 1023.86 1023.94 1024.03 1024.11 1024.19 1024.23 1024.25 1024.24 1024.21 1024.18 1024.15 1024.14 1024.14 1024.14 1024.11 1024.02 1023.85 1023.60 1023.26 1022.85 1022.40 1021.94 1021.50 1021.12 1020.80 1020.54 1020.32 1020.11
1018.84 1019.17 1019.54 1019.97 1020.46 1020.99 1021.54 1022.05 1022.51 1022.87 1023.14 1023.31 1023.41 1023.48 1023.53 1023.59 1023.68 1023.78 1023.88 1023.97 1024.04 1024.07 1024.08 1024.07 1024.06 1024.07 1024.10 1024.15 1024.20 1024.22 1024.18 1024.05 1023.81 1023.46 1023.02 1022.52 1021.99 1021.48 1021.02 1020.64 1020.34 1020.09 1019.87
1018.54 1018.79 1019.10 1019.49 1019.97 1020.51 1021.08 1021.62 1022.11 1022.50 1022.78 1022.96 1023.07 1023.13 1023.18 1023.25 1023.34 1023.45 1023.57 1023.68 1023.77 1023.82 1023.84 1023.85 1023.86 1023.90 1023.96 1024.05 1024.15 1024.22 1024.23 1024.15 1023.94 1023.60 1023.15 1022.61 1022.04 1021.47 1020.95 1020.50 1020.14 1019.84 1019.58
Thickness
5749 5752 5753 5752 5751 5751 5750 5750 5750 5750 5749 5748 5747 5747 5746 5745 5744 5743 5742 5741 5741 5740 5739 5738 5737 5737 5736 5734 5733 5732 5731 5730 5729 5728 5727 5726 5725 5725 5723 5722 5721 5720 5719
5750 5750 5750 5749 5749 5748 5748 5747 5747 5746 5746 5745 5744 5744 5743 5742 5741 5740 5739 5738 5737 5737 5736 5735 5734 5733 5732 5731 5730 5729 5727 5726 5725 5724 5723 5722 5721 5721 5720 5718 5717 5716 5715
5748 5747 5746 5746 5745 5745 5745 5744 5744 5743 5742 5742 5741 5740 5740 5739 5738 5737 5736 5735 5734 5733 5732 5732 5731 5730 5729 5727 5726 5725 5724 5722 5721 5720 5719 5718 5717 5717 5716 5715 5714 5712 5711
5743 5742 5742 5742 5741 5741 5741 5741 5740 5739 5738 5738 5737 5736 5736 5735 5734 5733 5732 5731 5730 5730 5729 5728 5727 5726 5725 5724 5722 5721 5719 5718 5717 5716 5715 5714 5713 5713 5712 5711 5710 5708 5707
5737 5737 5737 5737 5736 5737 5737 5736 5736 5735 5734 5733 5733 5732 5732 5731 5730 5729 5728 5727 5727 5726 5725 5724 5723 5722 5721 5720 5718 5717 5715 5714 5712 5711 5710 5710 5709 5709 5708 5707 5706 5704 5703
5730 5731 5731 5731 5731 5731 5731 5731 5731 5730 5729 5729 5728 5728 5727 5727 5726 5725 5724 5723 5722 5721 5720 5719 5719 5718 5717 5716 5714 5713 5711 5709 5708 5707 5706 5705 5705 5704 5704 5702 5701 5700 5699
5722 5724 5724 5725 5725 5724 5725 5725 5725 5725 5724 5724 5723 5723 5723 5722 5721 5720 5719 5719 5718 5717 5716 5715 5714 5713 5712 5711 5710 5708 5707 5705 5704 5702 5701 5701 5700 5700 5699 5697 5696 5695 5694
5715 5716 5717 5717 5717 5717 5718 5718 5718 5719 5718 5718 5718 5717 5717 5717 5716 5715 5714 5714 5713 5712 5711 5710 5710 5709 5708 5706 5705 5703 5701 5700 5699 5697 5696 5696 5696 5695 5694 5692 5691 5690 5689
5706 5707 5709 5710 5710 5710 5710 5711 5711 5712 5712 5711 5711 5711 5711 5711 5710 5710 5709 5709 5708 5707 5706 5705 5704 5703 5703 5701 5699 5698 5696 5695 5693 5692 5691 5691 5690 5690 5689 5687 5686 5684 5683
5697 5699 5700 5702 5702 5702 5702 5703 5703 5704 5705 5704 5704 5705 5704 5705 5704 5704 5704 5703 5703 5702 5701 5700 5699 5698 5697 5696 5694 5692 5690 5689 5688 5687 5686 5685 5685 5684 5683 5682 5680 5678 5677
5687 5689 5691 5693 5694 5694 5695 5694 5695 5696 5697 5697 5697 5697 5698 5698 5698 5697 5697 5698 5697 5696 5695 5694 5693 5691 5690 5689 5688 5687 5685 5683 5682 5681 5680 5680 5679 5678 5677 5676 5674 5672 5671
5678 5680 5682 5684 5685 5686 5686 5686 5687 5688 5688 5689 5690 5690 5691 5691 5691 5691 5691 5691 5690 5690 5689 5687 5686 5685 5684 5683 5682 5680 5679 5677 5676 5675 5674 5674 5673 5672 5671 5669 5668 5666 5665
5670 5671 5673 5675 5677 5678 5678 5679 5679 5680 5681 5682 5682 5683 5684 5684 5684 5684 5684 5684 5683 5683 5682 5681 5680 5679 5678 5676 5675 5674 5672 5671 5669 5668 5668 5667 5666 5666 5664 5663 5661 5660 5659
5661 5663 5666 5667 5669 5670 5671 5671 5671 5672 5673 5674 5675 5676 5677 5677 5677 5677 5677 5677 5677 5676 5676 5675 5673 5672 5671 5670 5668 5667 5665 5664 5662 5662 5661 5660 5659 5658 5657 5656 5654 5653 5652
5652 5654 5657 5659 5660 5661 5662 5662 5663 5664 5665 5666 5667 5669 5669 5670 5670 5670 5670 5670 5670 5669 5669 5668 5666 5665 5664 5663 5661 5660 5659 5657 5655 5654 5653 5652 5651 5650 5649 5648 5647 5646 5645
5644 5646 5648 5650 5652 5653 5654 5654 5655 5656 5657 5658 5660 5661 5662 5663 5663 5663 5663 5663 5662 5662 5662 5661 5660 5658 5657 5655 5654 5653 5651 5650 5648 5647 5646 5644 5643 5642 5641 5640 5639 5638 5637
5635 5637 5639 5642 5644 5645 5646 5647 5648 5648 5649 5650 5651 5653 5654 5655 5656 5657 5656 5656 5655 5655 5654 5653 5652 5651 5649 5648 5646 5645 5644 5642 5640 5639 5638 5636 5635 5634 5633 5632 5631 5630 5629
5625 5627 5630 5633 5635 5637 5638 5639 5640 5641 5642 5642 5644 5645 5646 5648 5649 5649 5649 5649 5648 5648 5647 5645 5644 5642 5640 5639 5637 5636 5636 5634 5633 5631 5630 5628 5627 5626 5624 5623 5622 5621 5620
5617 5619 5621 5624 5626 5628 5629 5630 5631 5632 5633 5634 5636 5637 5638 5640 5641 5642 5642 5641 5641 5640 5639 5638 5635 5634 5632 5630 5629 5628 5627 5626 5625 5623 5621 5620 5619 5618 5616 5615 5613 5612 5611
5607 5609 5611 5614 5617 5619 5620 5621 5622 5623 5624 5626 5628 5630 5631 5632 5633 5634 5634 5634 5634 5633 5631 5630 5627 5626 5624 5622 5622 5619 5618 5617 5616 5615 5613 5612 5610 5609 5608 5606 5605 5603 5602
5598 5600 5603 5605 5607 5609 5610 5611 5612 5614 5616 5618 5620 5622 5623 5624 5625 5626 5626 5626 5626 5625 5624 5622 5620 5617 5615 5614 5612 5610 5609 5608 5607 5606 5605 5603 5602 5600 5599 5597 5596 5595 5593
5589 5592 5594 5597 5599 5602 5603 5604 5604 5606 5607 5610 5611 5613 5614 5617 5618 5618 5618 5618 5618 5617 5615 5613 5612 5609 5606 5605 5604 5601 5599 5598 5598 5598 5596 5595 5593 5592 5590 5589 5587 5586 5585
5580 5583 5587 5589 5592 5594 5595 5595 5596 5597 5598 5599 5601 5604 5607 5609 5610 5610 5611 5611 5610 5609 5608 5606 5605 5603 5599 5596 5595 5594 5591 5590 5587 5588 5587 5585 5584 5583 5582 5580 5579 5577 5576
5572 5576 5578 5580 5584 5586 5587 5589 5590 5591 5591 5593 5595 5598 5600 5601 5602 5602 5603 5603 5602 5601 5600 5599 5597 5595 5593 5589 5586 5584 5583 5581 5578 5578 5578 5577 5576 5574 5573 5572 5570 5569 5567
5564 5567 5569 5572 5575 5578 5580 5582 5583 5584 5584 5586 5587 5589 5591 5593 5594 5594 5595 5594 5594 5594 5593 5591 5589 5588 5585 5582 5579 5577 5574 5570 5569 5568 5567 5567 5567 5566 5564 5563 5562 5560 5559
5555 5558 5561 5564 5567 5570 5573 5575 5576 5577 5577 5578 5580 5582 5583 5584 5585 5586 5587 5586 5586 5586 5584 5583 5582 5580 5577 5575 5573 5571 5568 5565 5562 5559 5557 5557 5557 5557 5556 5555 5553 5551 5550